Wind_Speed
5 8 11 12 10 13 13 14 13 13 13 12 11 11 15 19 21 16 17 14 11 11 10 5 2 2 3 2 3 4 5 7 9 10 12 11 11 11 11 10 9 10 9
9 9 10 12 15 15 17 16 15 13 11 9 9 9 16 20 24 20 18 14 12 10 13 8 7 4 4 2 4 5 6 8 8 9 11 13 11 10 9 8 7 7 7
12 12 14 12 15 13 20 17 17 14 10 8 8 8 15 21 21 21 18 13 13 10 10 11 11 5 3 4 4 5 5 6 7 10 11 9 8 7 6 6 6 6 6
15 14 13 13 11 9 16 16 16 14 12 10 10 8 12 20 19 21 18 12 10 9 7 10 8 5 5 4 3 5 6 6 8 9 9 9 8 6 4 4 5 7 9
17 15 13 15 12 11 12 14 14 14 14 13 13 10 11 15 17 15 15 13 12 13 11 7 6 5 4 4 5 5 5 7 8 7 8 8 8 7 6 7 9 9 10
17 15 13 16 15 14 13 13 13 14 14 15 17 15 15 15 14 15 13 15 16 10 8 8 7 5 4 7 6 6 6 8 6 8 10 11 10 8 9 9 10 11 12
17 18 12 15 12 12 12 12 11 12 15 15 16 18 16 14 14 14 14 13 15 6 7 6 6 6 9 8 7 7 7 8 6 9 9 8 9 9 9 11 11 11 12
17 17 11 10 10 9 8 7 6 8 13 15 16 16 15 15 15 13 12 14 17 9 7 7 7 9 10 8 8 8 8 8 8 10 9 6 6 8 9 10 11 12 15
15 9 6 5 8 9 8 5 3 4 9 10 11 12 12 13 13 12 12 10 13 11 9 9 10 11 11 9 8 8 9 10 10 12 10 7 5 5 7 10 12 15 18
12 9 4 3 7 9 8 6 4 7 9 9 8 7 7 10 10 11 8 7 8 9 11 12 11 12 10 10 10 9 10 11 12 13 10 8 7 6 8 13 16 18 20
15 9 8 8 9 11 11 10 9 8 7 6 5 4 4 6 15 10 8 9 9 10 11 12 11 12 10 11 13 12 12 12 14 14 10 7 7 8 9 12 15 19 22
13 12 13 9 9 11 11 12 10 9 8 6 6 4 3 3 5 3 9 11 11 10 10 11 13 14 13 14 16 15 15 13 15 17 14 11 10 11 12 14 17 20 24
14 16 17 14 12 10 9 8 8 5 2 0 2 3 4 5 6 6 10 13 14 14 15 14 15 16 18 18 19 19 17 17 16 19 18 17 15 15 16 18 20 23 26
20 15 19 17 13 10 8 6 5 5 5 6 9 16 16 11 14 13 13 12 13 17 18 19 19 19 19 20 21 22 21 20 19 20 21 22 20 20 21 23 25 28 30
28 24 17 16 19 13 12 13 8 5 7 8 12 17 20 22 22 19 17 14 15 16 13 19 23 23 24 23 24 25 25 26 25 23 25 25 26 26 27 28 30 32 30
33 30 26 22 21 18 14 10 10 11 13 13 16 17 19 24 28 30 24 20 22 22 20 21 25 30 30 29 27 27 29 30 29 28 28 28 28 28 29 30 32 32 31
32 38 37 33 31 25 21 22 24 15 14 17 21 23 26 29 31 33 34 30 27 27 25 28 32 34 37 38 33 31 30 33 33 33 34 30 29 28 30 32 32 34 33
40 38 44 47 41 29 25 21 20 18 20 21 25 31 35 38 37 36 37 38 37 33 32 32 37 39 38 37 39 36 36 35 36 37 35 33 31 31 31 32 33 33 34
40 42 46 48 51 42 27 25 22 22 25 29 31 35 39 36 33 34 35 35 34 34 34 36 38 41 42 39 42 48 44 42 38 39 37 34 33 32 33 36 35 34 33
39 38 34 30 37 32 22 21 26 23 25 30 35 37 31 29 30 31 32 34 36 39 39 39 44 48 47 45 46 49 48 45 41 41 39 36 37 37 37 37 35 31 33
36 35 33 32 27 20 22 25 26 27 31 36 39 40 29 27 29 32 29 30 33 34 35 38 42 46 50 53 50 47 46 45 43 41 41 40 39 39 38 38 30 30 32
31 30 33 34 27 30 29 27 30 33 37 40 41 41 32 30 31 31 32 32 33 35 39 41 44 51 58 59 56 47 44 48 46 42 40 41 39 35 34 29 28 30 30
32 32 30 32 36 32 30 32 37 39 40 42 44 39 34 32 32 33 34 34 37 40 43 49 54 61 62 58 55 46 47 46 48 45 42 42 41 38 30 26 28 30 30
38 38 37 36 35 37 40 41 41 43 45 45 42 38 36 35 34 34 36 38 37 41 44 50 57 49 42 44 49 43 46 50 49 47 43 39 41 32 29 27 27 30 31
43 42 40 42 42 42 43 45 46 48 47 48 42 39 38 37 35 34 34 35 35 37 42 46 40 25 27 32 50 47 47 49 48 44 45 43 37 24 27 27 29 30 32
45 44 46 47 48 48 49 50 49 49 49 43 41 39 37 35 33 32 33 34 31 33 35 39 38 22 29 37 40 42 44 48 53 53 50 44 27 25 30 29 30 33 32
Wind_Direction
283 277 281 290 275 232 225 231 233 232 235 247 265 256 221 215 189 196 200 203 203 200 208 195 253 238 246 275 320 310 330 326 340 340 332 339 343 343 355 1 359 356 0
302 283 277 283 282 246 222 229 228 229 232 241 265 246 197 204 189 197 207 206 209 228 213 212 218 223 238 273 290 321 321 338 342 329 326 339 345 350 2 2 12 16 11
307 303 281 276 284 266 219 225 228 227 225 223 233 232 205 196 207 202 210 212 222 214 219 211 206 230 235 251 279 306 321 324 326 319 331 338 346 352 4 2 4 8 357
311 302 297 275 275 267 221 226 227 229 225 213 216 209 213 205 210 203 215 213 221 232 238 209 222 214 207 260 287 295 310 327 318 328 334 339 345 349 350 344 346 349 348
314 304 303 270 263 249 232 228 232 222 222 213 205 200 194 178 184 196 204 219 230 243 221 227 228 216 233 255 268 278 307 308 319 334 328 329 336 329 327 337 342 341 335
312 299 290 287 253 241 231 228 229 230 219 216 208 210 212 205 206 219 224 237 239 252 222 226 228 228 256 250 267 283 296 311 326 332 327 327 320 324 324 327 334 339 338
300 309 283 284 238 233 224 220 224 230 225 212 213 216 216 219 224 234 243 260 244 210 240 243 226 242 250 247 270 286 311 309 322 316 321 332 325 327 334 336 341 340 340
286 303 281 273 228 206 208 203 213 233 225 215 215 219 222 221 227 239 254 265 275 253 258 261 239 239 249 251 275 290 313 300 307 303 309 327 334 334 341 340 338 339 337
274 271 267 238 197 169 178 200 227 237 213 198 204 213 222 226 230 241 258 270 272 248 268 261 247 244 249 252 275 285 308 301 294 300 301 301 308 325 327 325 325 326 322
265 243 184 132 172 173 168 158 118 98 115 144 161 176 203 227 230 246 226 268 266 264 265 256 247 252 256 260 274 284 290 286 285 296 301 293 283 280 294 301 305 310 313
248 235 163 143 135 139 131 127 113 109 109 120 138 176 222 335 243 214 261 276 278 273 258 252 250 258 266 265 269 275 277 278 276 285 283 273 277 282 292 298 303 307 306
238 221 187 165 146 139 132 126 117 106 101 91 86 77 49 9 26 333 311 299 297 293 283 269 262 261 262 262 261 263 265 274 272 279 279 272 268 279 288 290 293 295 298
226 210 195 186 179 171 166 157 146 138 126 65 312 312 311 317 318 316 317 323 318 314 303 292 285 278 268 262 259 259 259 264 270 273 278 278 277 278 276 279 287 296 303
211 198 207 199 201 203 199 197 202 220 239 268 286 302 315 309 321 302 315 325 322 322 313 304 295 288 282 275 273 269 266 265 266 270 270 273 275 276 280 286 291 297 302
213 202 207 199 209 218 231 234 234 257 285 295 292 287 293 301 301 298 302 303 300 307 303 300 296 294 289 280 274 271 270 271 270 269 273 273 275 278 283 289 294 298 301
226 223 220 216 218 222 228 216 244 263 281 289 288 291 293 289 288 295 291 288 295 294 288 286 287 287 284 282 276 271 269 269 273 274 274 275 278 284 290 293 295 298 303
228 228 230 230 229 237 242 254 255 260 273 281 283 285 289 289 282 280 284 285 288 288 288 290 285 278 279 275 271 269 267 267 267 267 271 276 279 281 284 289 293 299 304
234 229 231 232 233 234 246 258 261 261 261 266 275 285 291 294 285 275 273 275 281 285 282 282 278 287 295 277 267 268 265 263 266 264 267 271 274 277 284 290 295 298 302
236 234 237 236 240 232 234 239 247 249 262 277 286 299 293 288 279 274 275 277 281 282 281 278 277 284 287 283 287 273 264 258 258 263 263 267 267 271 286 293 295 297 300
233 238 257 265 287 201 229 253 235 258 278 288 296 300 290 286 286 282 281 281 280 279 279 279 277 277 282 282 291 282 262 252 254 257 262 266 267 275 286 292 293 295 300
231 232 240 247 254 252 247 237 244 262 276 287 289 299 288 283 286 285 281 284 287 282 280 282 282 283 284 284 281 280 263 250 250 255 260 268 272 278 287 286 286 293 299
225 227 236 244 247 246 253 249 255 268 276 281 289 296 286 282 288 284 283 288 292 290 293 294 281 280 283 281 271 268 258 249 249 253 257 262 269 278 281 278 285 294 299
229 232 241 245 249 249 246 256 261 266 276 281 288 288 282 278 282 280 284 287 289 290 295 302 295 290 276 267 260 259 255 248 245 250 255 258 266 272 270 278 288 293 298
223 227 231 238 244 248 252 256 261 268 276 280 283 279 279 281 283 285 287 290 292 298 297 304 302 288 270 250 247 248 247 245 245 249 253 257 262 256 266 278 289 294 304
224 232 235 237 240 244 250 255 262 270 273 279 275 275 278 281 285 286 292 294 297 302 305 315 314 276 260 218 226 247 244 245 248 249 250 252 257 257 271 281 286 295 299
224 230 235 240 245 248 254 261 266 271 275 269 271 275 278 281 282 284 289 294 299 305 313 324 340 311 238 233 224 242 240 250 251 256 262 262 229 260 269 278 286 292 295
Height
5904 5901 5900 5899 5899 5899 5899 5901 5902 5902 5904 5904 5904 5905 5906 5909 5913 5916 5917 5919 5921 5923 5924 5924 5924 5925 5924 5924 5924 5924 5923 5922 5921 5920 5919 5919 5918 5917 5916 5914 5913 5911 5910
5903 5900 5898 5897 5896 5896 5896 5897 5899 5899 5900 5901 5901 5901 5903 5905 5909 5913 5915 5918 5920 5921 5922 5923 5923 5924 5924 5924 5924 5923 5922 5922 5921 5920 5918 5918 5917 5916 5914 5913 5912 5910 5910
5901 5899 5897 5894 5893 5892 5894 5895 5897 5898 5899 5900 5900 5900 5902 5905 5908 5911 5914 5917 5918 5919 5919 5920 5922 5921 5923 5924 5923 5923 5922 5921 5920 5919 5918 5917 5915 5914 5913 5912 5911 5910 5910
5899 5896 5895 5894 5892 5890 5892 5893 5895 5896 5896 5898 5899 5899 5901 5904 5908 5911 5914 5916 5917 5918 5918 5920 5920 5921 5922 5922 5922 5922 5922 5921 5920 5918 5916 5916 5914 5913 5911 5911 5912 5911 5909
5896 5895 5894 5894 5891 5890 5890 5892 5893 5895 5895 5896 5898 5900 5902 5903 5907 5910 5912 5913 5916 5917 5917 5917 5918 5919 5919 5921 5920 5921 5920 5919 5918 5916 5915 5914 5913 5912 5911 5910 5910 5909 5908
5896 5894 5892 5892 5890 5889 5889 5890 5891 5892 5893 5894 5896 5899 5902 5905 5907 5909 5910 5913 5915 5914 5916 5916 5916 5917 5918 5919 5919 5919 5919 5917 5916 5915 5914 5913 5912 5911 5910 5909 5909 5909 5907
5894 5892 5890 5889 5888 5887 5888 5889 5890 5890 5890 5891 5894 5897 5900 5903 5906 5907 5910 5911 5911 5912 5913 5913 5914 5915 5917 5917 5917 5917 5917 5916 5915 5915 5914 5913 5912 5911 5911 5910 5910 5908 5907
5892 5890 5889 5887 5886 5886 5887 5889 5889 5889 5888 5889 5892 5895 5898 5901 5903 5906 5908 5908 5908 5910 5910 5911 5912 5913 5914 5915 5914 5915 5915 5915 5915 5914 5913 5911 5910 5909 5909 5909 5909 5907 5905
5890 5889 5888 5886 5886 5886 5887 5888 5888 5887 5887 5888 5891 5894 5897 5900 5902 5904 5906 5906 5906 5907 5908 5909 5910 5912 5912 5912 5913 5914 5913 5913 5913 5912 5911 5909 5908 5907 5908 5908 5906 5905 5904
5887 5888 5888 5887 5885 5886 5887 5888 5888 5888 5888 5890 5892 5894 5897 5899 5900 5902 5904 5904 5905 5905 5905 5906 5908 5910 5911 5911 5912 5911 5910 5910 5911 5910 5908 5906 5906 5904 5904 5904 5903 5901 5900
5885 5886 5887 5887 5887 5887 5887 5888 5888 5889 5890 5891 5893 5894 5896 5896 5895 5899 5902 5903 5903 5903 5904 5905 5906 5907 5907 5908 5909 5908 5908 5907 5907 5907 5905 5903 5902 5902 5900 5900 5899 5897 5895
5882 5884 5885 5887 5888 5888 5888 5889 5890 5891 5891 5892 5893 5894 5895 5895 5896 5898 5900 5900 5901 5901 5902 5902 5903 5903 5903 5904 5904 5904 5904 5904 5904 5903 5902 5900 5898 5897 5896 5895 5893 5891 5888
5879 5881 5883 5885 5887 5888 5888 5889 5890 5890 5891 5892 5893 5893 5894 5896 5896 5897 5898 5898 5899 5900 5900 5900 5900 5900 5901 5900 5900 5900 5899 5898 5898 5898 5898 5897 5895 5893 5890 5888 5886 5885 5883
5876 5878 5880 5883 5884 5886 5887 5888 5889 5890 5890 5891 5891 5890 5891 5893 5893 5894 5894 5894 5895 5896 5896 5896 5895 5895 5896 5896 5896 5896 5895 5894 5892 5892 5891 5891 5890 5888 5886 5884 5882 5879 5877
5871 5873 5876 5878 5881 5882 5883 5885 5886 5887 5888 5889 5889 5889 5889 5888 5889 5889 5890 5890 5890 5891 5891 5890 5889 5889 5888 5889 5889 5889 5889 5889 5887 5886 5885 5883 5882 5882 5880 5878 5876 5873 5870
5865 5868 5870 5873 5875 5877 5880 5881 5882 5883 5884 5884 5884 5884 5884 5884 5884 5882 5883 5883 5884 5885 5885 5885 5883 5881 5881 5881 5881 5881 5882 5882 5882 5881 5878 5877 5876 5875 5873 5870 5868 5865 5863
5856 5861 5863 5866 5868 5870 5874 5875 5877 5877 5877 5877 5878 5879 5879 5879 5878 5876 5875 5875 5877 5877 5878 5877 5875 5872 5871 5870 5871 5872 5872 5873 5873 5872 5871 5871 5869 5867 5865 5862 5860 5858 5855
5847 5851 5853 5854 5858 5862 5867 5869 5870 5871 5872 5871 5871 5871 5870 5869 5868 5867 5867 5867 5868 5868 5868 5867 5865 5861 5860 5857 5860 5862 5863 5862 5863 5862 5863 5862 5861 5859 5857 5855 5852 5850 5848
5839 5843 5844 5847 5849 5854 5856 5858 5862 5864 5865 5865 5865 5863 5861 5859 5858 5858 5858 5858 5858 5858 5857 5856 5855 5852 5850 5849 5849 5848 5851 5851 5851 5852 5853 5853 5852 5851 5849 5847 5845 5842 5840
5831 5832 5836 5835 5831 5833 5841 5852 5854 5855 5856 5856 5856 5855 5852 5851 5850 5850 5849 5848 5848 5846 5846 5845 5843 5841 5839 5837 5835 5833 5835 5839 5839 5841 5843 5843 5843 5842 5840 5838 5836 5834 5832
5822 5826 5829 5831 5833 5834 5841 5844 5846 5847 5848 5848 5847 5846 5844 5843 5841 5840 5839 5837 5836 5835 5833 5832 5830 5829 5826 5823 5821 5822 5823 5826 5827 5829 5833 5834 5833 5833 5831 5828 5827 5826 5824
5812 5818 5822 5825 5826 5831 5835 5837 5839 5839 5840 5839 5838 5837 5835 5834 5832 5831 5829 5827 5825 5822 5820 5817 5816 5813 5808 5808 5806 5810 5811 5813 5816 5818 5821 5822 5822 5821 5820 5819 5818 5817 5815
5802 5807 5811 5816 5820 5820 5826 5829 5830 5830 5830 5829 5828 5827 5826 5824 5823 5821 5819 5817 5815 5812 5807 5802 5796 5790 5785 5786 5787 5793 5798 5800 5803 5807 5809 5810 5811 5810 5810 5810 5810 5809 5806
5796 5800 5804 5808 5811 5814 5817 5819 5820 5820 5819 5818 5817 5816 5815 5814 5813 5811 5808 5806 5803 5799 5794 5786 5773 5763 5760 5763 5772 5778 5784 5787 5792 5795 5798 5800 5800 5799 5801 5802 5801 5800 5797
5784 5788 5793 5797 5800 5803 5805 5808 5809 5809 5808 5807 5805 5804 5803 5802 5801 5799 5797 5794 5792 5788 5783 5775 5757 5751 5752 5754 5758 5767 5772 5778 5782 5784 5786 5787 5787 5789 5792 5793 5792 5790 5788
5774 5778 5783 5787 5790 5792 5794 5796 5797 5798 5797 5795 5794 5793 5792 5791 5790 5789 5787 5784 5782 5779 5774 5765 5754 5744 5747 5748 5750 5758 5764 5767 5770 5771 5772 5773 5775 5780 5783 5783 5782 5780 5779